Location: Home
(42.5358°N, 72.7383°W)
Time: 04:03:31
(UTC-04:00)

COSMOS 2251 DEB - Visible Passes

Search period start: 26 June 2022 00:00
Search period end: 06 July 2022 00:00
Orbit: 770 x 1232 km, 74.1° (Epoch: 25 June)

Date Brightness Start Highest point End Pass type
(mag) Time Alt. Az. Time Alt. Az. Time Alt. Az.
26 Jun ? 02:31:58 23° SSE 02:35:01 41° E 02:40:55 10° NNE visible
26 Jun ? 04:17:11 10° WSW 04:22:17 32° WNW 04:28:03 10° N visible
27 Jun ? 01:20:05 10° ESE 01:22:16 12° E 01:24:32 10° ENE visible
27 Jun ? 03:04:52 28° SSW 03:08:08 89° ESE 03:14:40 10° NNE visible
28 Jun ? 01:52:31 22° SE 01:54:52 29° E 02:00:14 10° NE visible
28 Jun ? 03:37:44 19° SW 03:41:40 44° WNW 03:47:57 10° N visible
29 Jun ? 02:25:21 36° S 02:27:48 64° ESE 02:34:16 10° NNE visible
29 Jun ? 04:10:56 10° WSW 04:15:39 23° NW 04:20:48 10° N visible
30 Jun ? 01:12:58 18° ESE 01:14:47 21° E 01:19:19 10° NE visible
30 Jun ? 02:58:10 30° SW 03:01:09 61° WNW 03:07:45 10° NNE visible
01 Jul ? 01:45:45 36° SE 01:47:33 46° E 01:53:47 10° NNE visible
01 Jul ? 03:30:57 16° WSW 03:34:57 31° WNW 03:40:50 10° N visible
02 Jul ? 00:33:19 13° ESE 00:34:46 14° E 00:37:56 10° ENE visible
02 Jul ? 02:18:31 43° SSW 02:20:43 85° WNW 02:27:29 10° NNE visible
02 Jul ? 04:05:14 10° W 04:09:09 17° NW 04:13:20 10° N visible
03 Jul ? 01:06:04 30° ESE 01:07:23 33° E 01:13:09 10° NE visible
03 Jul ? 02:51:16 25° WSW 02:54:20 42° WNW 03:00:44 10° N visible
04 Jul ? 01:38:47 50° S 01:40:23 71° ESE 01:47:07 10° NNE visible
04 Jul ? 03:23:58 11° W 03:28:21 22° NW 03:33:34 10° N visible
05 Jul ? 00:26:17 22° ESE 00:27:17 23° E 00:32:20 10° NE visible
05 Jul ? 02:11:29 37° SW 02:13:47 58° WNW 02:20:34 10° NNE visible
05 Jul ? 04:00:16 10° WNW 04:02:48 12° NW 04:05:24 10° NNW visible
